Weather in Heringsdorf

Germany     54°18′03″N   11°00′37″E
temp.,
°C
wind,
m/s
gust,
m/s
humid.,
%
clouds,
%
prec.,
mm/h
press.,
hPa
HPBL,
m
15 april, thu
thu1523:00+3nnw33725 0.0 103033
02:00+3nne337711 0.0 103044
05:00+2nnw4580100 0.0 103084
08:00+4n358097 0.0 1030251
11:00+6ne446697 0.0 1031510
14:00+7nne355695 0.0 1031958
17:00+7n675888 0.0 1030901
20:00+5n347477 0.0 103076
16 april, fri
fri1623:00+5nne597377 0.0 1030266
02:00+4nne348763 0.0 102969
05:00+3nne338154 0.0 102828
08:00+4nne587498 0.0 1029444
11:00+6nne6862100 0.0 1029561
14:00+7n5855100 0.0 1028724
17:00+7n6865100 0.0 1027549
20:00+5nnw6107522 0.0 1027192
17 april, sat
sat1723:00+4n598068 0.0 1026196
02:00+5ne2382100 0.0 102592
05:00+5nne3680100 0.1 1025258
08:00+5ne4789100 0.1 1025415
11:00+6ne4684100 0.0 1025463
14:00+8ne4676100 0.0 1025517
17:00+7ne3580100 0.0 1025343
20:00+6ne2487100 0.0 1025147
18 april, sun
sun1823:00+6nne3492100 0.1 1025169
02:00+6nne3695100 0.4 1024237
05:00+6ne3696100 0.1 1023222
08:00+6ne4694100 0.1 1024244
11:00+7ne3588100 0.0 1024214
14:00+9nne467851 0.0 1023409
17:00+9nne4682100 0.4 1022400
20:00+8nne61095100 3.9 1022509
19 april, mon
mon1923:00+6ene579699 0.0 1023291
02:00+5ene459857 0.0 1023133
05:00+5ne4596100 0.0 1023224
08:00+5ene4493100 0.1 1023274
11:00+7ne3490100 0.0 1023243
14:00+9ne4586100 0.0 1023282
17:00+9ne578314 0.0 1021282
20:00+7ene510905 0.0 1020181